Regional Weather Roundup
Issued by NWS

Home | Current Version | Previous Version | Text Only | Print | Product List | Glossary On
Versions: 1 2 3 4 5 6 7 8 9 10 11 12 13 14 15 16 17 18 19 20 21 22 23 24 25 26 27 28 29 30 31 32 33 34 35 36 37 38 39 40 41 42 43 44 45 46 47 48 49 50
000
ASUS44 KFWD 260415
RWRTX
NORTH TEXAS HOURLY WEATHER ROUNDUP
NATIONAL WEATHER SERVICE FORT WORTH TX
1000 PM CST SUN JAN 25 2015

NOTE: "FAIR" INDICATES FEW OR NO CLOUDS BELOW 12,000 FEET WITH NO
SIGNIFICANT WEATHER AND/OR OBSTRUCTIONS TO VISIBILITY.

TXZ118-119-260500-
DALLAS/FORT WORTH METROPLEX

CITY           SKY/WX    TMP DP  RH WIND       PRES   REMARKS
DFW AIRPORT    CLEAR     50  24  36 NW8       30.16R
DALLAS LOVE    CLEAR     47  30  51 CALM      30.16R
FTW MEACHAM    CLEAR     48  26  42 W3        30.17R
DAL-EXECUTIVE  CLEAR     50  25  37 W7        30.15R
FTW-ALLIANCE   CLEAR     47  24  40 NW6       30.17R
FTW-SPINKS     CLEAR     47  26  43 W7        30.19R
ARLINGTON      CLEAR     42  25  50 W5        30.17R WCI  39
GRAND PRAIRIE  CLEAR     51  29  43 W3        30.18R
ADDISON        CLEAR     50  28  41 N6        30.18R
MESQUITE       CLEAR     49  27  41 NW8       30.16R
LANCASTER      CLEAR     46  26  45 W6        30.17R
$$

TXZ091>094-102>105-117-120-121-131>134-260500-
NORTH CENTRAL TEXAS

CITY           SKY/WX    TMP DP  RH WIND       PRES   REMARKS
SHRMAN/DENISON CLEAR     44  32  62 N5        30.16R
GAINESVILLE    CLEAR     43  28  53 NW5       30.18R
BOWIE          CLEAR     45  26  47 NW5       30.17S
BRIDGEPORT     CLEAR     43  27  54 W5        30.19R
DECATUR        CLEAR     48  22  36 NW5       30.17R
DENTON         CLEAR     44  26  49 W8        30.17R WCI  39
MCKINNEY       CLEAR     45  28  51 W9        30.16R
GREENVILLE     CLEAR     50  28  43 NW9       30.14R
ROCKWALL       CLEAR     49  28  43 NW7       30.14R
TERRELL        CLEAR     45  29  53 W6        30.16R
WAXAHACHIE     CLEAR     47  29  49 NW6       30.18R
CLEBURNE       CLEAR     45  25  45 W6        30.20R
GRANBURY       CLEAR     48  29  49 CALM      30.20R
$$

TXZ083>090-098>101-113>116-127>130-139>142-154-155-260500-
WESTERN NORTH TEXAS

CITY           SKY/WX    TMP DP  RH WIND       PRES   REMARKS
WICHITA FALLS  CLEAR     46  25  43 NW6       30.17R
WF-KICKAPOO    CLEAR    N/A N/A N/A W7        30.19S
VERNON         CLEAR     46  24  42 N3        30.20R
ABILENE        CLEAR     46  31  55 SW7       30.23S
ABILENE-DYESS  CLEAR     47  32  55 SW9       30.24R
BRECKENRIDGE   CLEAR     48  31  50 W5        30.21R
GRAHAM         CLEAR     40  29  63 CALM      30.19R
MINERAL WELLS  CLEAR     46  26  45 W5        30.18R
STEPHENVILLE   CLEAR     46  27  49 CALM      30.23R
COMANCHE       CLEAR     52  31  45 W8        30.22R
BROWNWOOD      CLEAR     41  32  70 NE3       30.24R
COLEMAN        CLEAR     47  33  57 W8        30.24S
BRADY          CLEAR     43  34  70 NW8       30.23S WCI  38
$$

TXZ143>147-156>162-174-175-260500-
CENTRAL TEXAS

CITY           SKY/WX    TMP DP  RH WIND       PRES   REMARKS
WACO           CLEAR     42  31  64 W9        30.19R WCI  37
WACO-TSTC      CLEAR     48  28  46 W5        30.19R
WACO-MCGREGOR  CLEAR     45  28  53 W8        30.20R
HILLSBORO      CLEAR     43  28  55 CALM      30.18R
CORSICANA      CLEAR     45  29  53 W9        30.17R
MEXIA          CLEAR     49  28  43 W5        30.17R
HEARNE         PTCLDY    46  32  59 NW5       30.19R
CAMERON        PTCLDY    49  33  53 W7        30.19R
TEMPLE         PTCLDY    46  27  46 W5        30.19R
KILLEEN        PTCLDY    58  28  31 NW13      30.20R
KILLEEN-SKYLRK PTCLDY    52  28  40 NW6       30.19R
FORT HOOD      PTCLDY    51  30  44 MISG      30.19R
GATESVILLE     PTCLDY    46  32  57 CALM      30.23R
HAMILTON       CLEAR     47  32  56 W10       30.22R
LAMPASAS       PTCLDY    55  31  39 NW7       30.20R
$$

TXZ095>097-106>112-122>126-135>138-148>153-164>167-260500-
EAST TEXAS

CITY           SKY/WX    TMP DP  RH WIND       PRES   REMARKS
PARIS          CLEAR     46  28  49 N8        30.12R
SULPHUR SPRNGS CLEAR     47  32  55 NW8       30.14R
MOUNT PLEASANT CLEAR     48  30  49 NW8       30.12R
GILMER         CLEAR     50  28  43 W6        30.11R
MINEOLA        CLEAR     52  25  35 NW6       30.14R
TYLER          CLEAR     49  27  42 NW8       30.13R
LONGVIEW       CLEAR     49  27  42 NW9       30.10R
MARSHALL       CLEAR     53  31  43 NW3       30.10R
ATHENS         CLEAR     50  28  43 NW3       30.14R
PALESTINE      CLEAR     44  32  62 CALM      30.16R
HENDERSON      CLEAR     40  31  70 W5        30.12R WCI  37
NACOGDOCHES    CLEAR     48  27  43 NW8       30.12R
LUFKIN         CLEAR     53  27  36 W5        30.12R
$$

SUPPLEMENTAL OBSERVATIONS (CENTRAL)

CITY           SKY/WX    TMP DP  RH WIND       PRES   REMARKS
LAKE TEXOMA      N/A     50  32  50 N8          N/A
CADDO GRASSLND   N/A     48  28  46 N6          N/A
PAT MAYSE LAKE   N/A     43  32  65 NW6         N/A  WCI  39
GREENVILLE       N/A     45  30  57 NW5         N/A
CEDAR HILL       N/A     43  27  52 CALM        N/A
ATHENS           N/A     48  27  43 NW2         N/A
PALESTINE        N/A     45  30  57 CALM        N/A
LAKE LIMESTONE   N/A     48  27  43 W5          N/A
MCGREGOR         N/A     50  32  50 W6          N/A
TEMPLE           N/A     52  32  46 NW1         N/A
$$

SUPPLEMENTAL OBSERVATIONS (WEST)

CITY           SKY/WX    TMP DP  RH WIND       PRES   REMARKS
MILLERS CREEK    N/A     41  32  70 SW3         N/A
POSSUM KINGDOM   N/A     50  28  43 W6          N/A
LBJ GRASSLAND    N/A     45  23  42 CALM        N/A
GRANBURY         N/A     46  28  49 VRB1        N/A
COMANCHE         N/A     52  28  40 W9          N/A
HAMBY            N/A     43  34  70 S5          N/A
$$

SUPPLEMENTAL OBSERVATIONS (EAST)

CITY           SKY/WX    TMP DP  RH WIND       PRES   REMARKS
CLARKSVILLE      N/A     45  32  61 NW2         N/A
TEXARKANA        N/A     46  32  57 W2          N/A
LINDEN           N/A     48  32  53 NW2         N/A
CADDO LAKE       N/A     43  32  65 SW2         N/A
GILMER           N/A     50  28  43 NW6         N/A
HENDERSON        N/A     48  28  46 W7          N/A
LUFKIN           N/A     52  28  40 MISG        N/A
N SABINE NF      N/A     52  27  37 MISG        N/A
S SABINE NF      N/A     52  27  37 SW3         N/A
$$

SUPPLEMENTAL OBSERVATIONS ARE A COLLECTION OF AUTOMATED INSTRUMENTS
THAT ARE MAINTAINED BY A VARIETY OF FEDERAL AND STATE AGENCIES.
CERTAIN ELEMENTS...SUCH AS HUMIDITY VALUES AND SUSTAINED WIND
SPEEDS...MAY BE APPROXIMATED.




USA.gov is the U.S. government's official web portal to all federal, state and local government web resources and services.